Probability
0 0 0 0 0 0 0 0 0 0 0 0 0 0 0 0 0 0 0 0 0 0 0 0 0 0 0 0 0 0 0 0 0 0 0 0 0 0
0 0 0 0 0 0 0 0 0 0 0 0 0 0 0 0 0 0 0 0 0 0 0 0 0 0 0 0 0 0 0 0 0 0 0 0 0 0
0 0 0 0 0 0 0 0 0 0 0 0 0 0 0 0 0 0 0 0 0 0 0 0 0 0 0 0 0 0 0 0 0 0 0 0 0 0
0 0 0 0 0 0 0 0 0 0 0 0 0 0 0 0 0 0 0 0 0 0 0 0 0 0 0 0 0 0 0 0 0 0 0 0 0 0
0 0 0 0 0 0 0 0 0 0 0 0 0 0 0 0 0 0 0 0 0 0 0 0 0 0 0 0 0 0 0 0 0 0 0 0 0 0
0 0 0 0 0 0 0 0 0 0 0 0 0 0 0 0 0 0 0 0 0 0 0 0 0 0 0 0 0 0 0 0 0 0 0 0 0 0
0 0 0 0 0 0 0 0 0 0 0 0 0 0 0 0 0 0 0 0 0 0 0 0 0 0 0 0 0 0 0 0 0 0 0 0 0 0
0 0 0 0 0 0 0 0 0 0 0 0 0 0 0 0 0 0 0 0 0 0 0 0 0 0 0 0 0 0 0 0 0 0 0 0 0 0
0 0 0 0 0 0 0 0 0 0 0 0 0 0 0 0 0 0 0 0 0 0 0 0 0 0 0 0 0 0 0 0 0 0 0 0 0 0
0 0 0 0 0 0 0 0 0 0 0 0 0 0 0 0 0 0 0 0 0 0 0 0 0 0 0 0 0 0 0 0 0 0 0 0 0 0
0 0 0 0 0 0 0 0 0 0 0 0 0 0 0 0 0 0 0 0 0 0 0 0 0 0 0 0 0 0 0 0 0 0 0 0 0 0
0 0 0 0 0 0 0 0 0 0 0 0 0 0 0 0 0 0 0 0 0 0 0 0 0 0 0 0 0 0 0 0 0 0 0 0 0 0
0 0 0 0 0 0 0 0 0 0 0 0 0 0 0 0 0 0 0 0 0 0 0 0 0 0 0 0 0 0 0 0 0 0 0 0 0 0
0 0 0 0 0 0 0 0 0 0 0 0 0 0 0 0 0 0 0 0 0 0 0 0 0 0 0 0 0 0 0 0 0 0 0 0 0 0
0 0 0 0 0 0 0 0 0 0 0 0 0 0 0 0 0 0 0 0 0 0 0 0 0 0 0 0 0 0 0 0 0 0 0 0 0 0
0 0 0 0 0 0 0 0 0 0 0 0 0 0 0 0 0 0 0 0 0 0 0 0 0 0 0 0 0 0 0 0 0 0 0 0 0 0
0 0 0 0 0 0 0 0 0 0 0 0 0 0 0 0 0 0 0 0 0 0 0 0 0 0 0 0 0 0 0 0 0 0 0 0 0 0
0 0 0 0 0 0 0 0 0 0 0 0 0 0 0 0 0 0 0 0 0 0 0 0 0 0 0 0 0 0 0 0 0 0 0 0 0 0
0 0 0 0 0 0 0 0 0 0 0 0 0 0 0 0 0 0 0 0 0 0 0 0 0 0 0 0 0 0 0 0 0 0 0 0 0 0
0 0 0 0 0 0 0 0 0 0 0 0 0 0 0 0 0 0 0 0 0 0 0 0 0 0 0 0 0 0 0 0 0 0 0 0 0 0
0 0 0 0 0 0 0 0 0 0 0 0 0 0 0 0 0 0 0 0 0 0 0 0 0 0 0 0 0 0 0 0 0 0 0 0 0 0
0 0 0 0 0 0 0 0 0 0 0 0 0 0 0 0 0 0 0 0 0 0 0 0 0 0 0 0 0 0 0 0 0 0 0 0 0 0
0 0 0 0 0 0 0 0 0 0 0 0 0 0 0 0 0 0 0 0 0 0 0 0 0 0 0 0 0 0 0 0 0 0 0 0 0 0
Wind_Speed
5 5 4 4 4 5 4 4 5 9 10 4 4 3 4 4 10 7 7 16 21 22 23 23 22 23 23 23 23 22 22 21 20 19 18 17 17 16
4 6 5 4 5 5 5 5 5 7 10 4 4 5 6 6 10 8 8 18 20 22 23 24 24 24 24 24 24 24 24 23 22 21 20 19 19 18
6 7 7 7 6 5 5 5 6 6 11 10 6 6 7 8 8 7 7 8 9 19 23 25 25 25 24 25 25 25 24 24 23 23 22 21 20 20
9 9 9 7 8 6 6 7 7 7 9 14 10 7 8 8 9 10 8 7 8 17 23 25 26 26 25 25 25 24 24 23 23 22 23 23 22 22
10 11 11 10 11 8 8 9 8 9 8 11 12 8 7 6 8 8 8 8 8 13 20 23 25 26 27 27 26 24 22 21 21 20 21 23 23 23
11 12 12 11 13 11 11 11 9 10 9 11 11 9 8 7 7 7 8 6 8 8 14 16 20 24 28 28 25 22 21 23 24 22 20 20 22 23
14 13 13 16 20 17 14 11 10 10 10 11 12 10 9 7 8 5 10 7 9 7 8 9 9 10 13 20 23 22 24 26 26 24 22 21 22 22
17 16 15 16 19 24 26 26 22 16 12 12 14 15 13 8 7 8 9 9 9 4 7 9 8 11 9 9 19 26 27 28 27 27 25 24 24 23
15 15 14 14 16 16 20 24 23 25 26 19 19 19 16 10 10 12 11 13 14 6 5 9 7 11 8 11 24 27 28 28 29 28 28 27 26 25
14 15 16 16 16 18 17 17 17 17 19 16 16 18 17 14 13 16 15 15 15 8 8 12 8 9 7 9 21 27 28 28 29 29 29 29 28 26
14 15 16 17 22 26 20 16 17 16 20 25 27 27 30 31 25 15 14 14 17 13 9 10 9 7 7 10 14 26 28 29 29 29 30 30 28 26
12 14 18 22 25 27 19 15 17 16 15 16 19 22 20 20 26 19 15 15 15 13 9 10 7 5 6 6 9 11 16 25 30 30 30 30 29 19
12 12 13 24 28 29 26 18 22 23 16 15 14 13 13 12 13 14 15 15 17 15 6 8 8 8 8 4 3 8 10 10 12 18 26 31 31 25
13 13 15 27 30 32 26 25 31 27 13 11 11 12 12 12 12 14 17 18 19 20 13 10 9 9 9 8 6 5 7 8 9 10 9 19 27 32
14 23 28 31 30 22 24 29 23 13 11 12 13 13 13 13 13 12 14 17 20 20 17 16 14 10 11 11 7 5 5 7 9 10 10 11 12 13
13 16 23 25 23 21 17 15 11 10 11 13 14 13 12 12 12 12 13 13 15 16 17 18 18 17 15 12 9 7 8 7 9 11 11 11 11 12
14 8 8 10 10 10 10 10 10 10 11 12 12 13 13 13 13 12 12 13 15 15 13 12 14 14 15 12 11 11 9 8 7 11 11 12 13 13
12 7 9 9 10 11 11 12 11 11 11 12 12 12 13 13 13 12 12 13 14 13 11 9 9 9 9 12 15 11 10 10 8 9 10 11 12 12
6 7 8 9 10 11 11 12 13 13 12 12 12 12 12 12 12 13 12 12 12 11 9 8 9 10 11 9 7 11 10 8 8 10 10 10 10 9
4 6 8 9 10 11 11 12 13 13 12 12 12 11 11 11 12 12 11 12 10 9 7 6 8 10 11 8 5 4 11 9 9 10 9 6 4 7
7 7 8 9 10 10 11 12 12 13 13 13 11 11 10 10 11 11 11 12 11 8 8 7 7 6 3 4 4 1 2 9 9 6 7 7 5 4
7 8 8 9 10 10 11 11 12 12 13 12 12 11 10 10 11 12 10 9 8 7 5 3 3 4 4 4 3 3 2 2 4 5 6 5 4 6
8 9 9 10 9 10 10 12 13 11 11 12 12 11 11 10 9 9 8 7 5 3 2 3 2 2 2 3 4 4 5 5 5 6 6 6 3 2
Wind_Direction
322 314 308 301 299 292 285 274 278 294 296 264 259 262 256 255 263 259 243 251 253 254 253 250 246 241 239 240 241 243 242 237 232 229 227 225 224 224
307 303 299 296 293 287 282 275 256 263 279 284 278 281 275 266 266 256 245 255 254 253 253 251 247 242 239 239 239 240 240 237 232 227 225 224 222 222
301 296 292 289 285 282 279 274 267 255 270 281 275 276 271 270 275 266 254 252 253 251 250 250 248 244 240 238 237 238 238 236 233 228 224 223 223 221
300 294 290 288 281 278 274 271 269 260 264 279 285 283 270 266 267 269 264 256 248 253 252 250 248 245 241 237 236 235 235 235 233 229 225 223 223 222
288 287 288 286 285 280 272 273 271 271 264 272 279 278 276 265 269 265 257 259 254 256 257 253 249 245 242 238 234 231 230 230 231 229 225 222 222 222
289 285 284 281 282 282 279 274 273 273 270 271 275 274 272 268 262 267 268 253 256 251 254 252 248 245 242 238 235 228 224 224 226 226 224 221 220 220
300 296 293 292 289 286 283 280 275 274 274 275 277 275 269 263 260 254 265 269 260 239 250 249 245 242 237 238 233 226 223 224 225 224 222 219 217 217
304 304 301 296 294 294 292 289 285 281 279 276 278 275 274 263 264 262 267 269 270 225 228 247 229 240 235 228 233 230 226 224 224 223 221 219 216 214
300 300 299 298 299 295 293 291 288 285 282 280 278 277 281 280 276 271 264 261 261 237 221 252 229 241 232 233 236 235 232 227 224 223 222 220 218 215
296 296 295 296 294 292 289 285 284 283 281 279 275 278 279 279 272 273 274 273 270 247 216 253 238 239 226 226 236 235 235 232 228 225 223 222 219 216
294 291 290 289 289 291 290 287 286 286 287 283 280 280 281 282 279 273 263 258 261 255 222 241 244 233 229 228 230 233 234 233 231 227 224 222 220 217
289 285 284 285 287 289 287 284 282 282 279 276 278 279 281 282 282 274 269 264 262 259 225 223 232 205 241 229 217 220 230 233 232 230 226 222 218 214
291 290 287 289 289 288 285 279 277 280 275 271 271 271 271 270 271 268 262 259 259 258 239 218 223 208 221 222 212 214 215 220 225 229 229 224 219 212
295 292 289 291 290 289 287 281 283 286 281 277 275 274 272 270 267 266 265 261 256 256 252 231 231 217 219 226 219 207 207 210 214 220 218 225 223 218
292 294 297 300 300 298 293 293 291 284 278 275 274 273 271 271 270 269 266 265 262 255 248 238 234 226 221 226 216 185 189 205 208 214 216 218 218 215
299 302 309 310 308 305 303 300 293 284 278 275 275 275 276 274 269 267 268 263 263 258 242 236 232 229 230 227 217 203 188 190 196 207 213 220 221 219
326 333 327 319 315 312 309 305 301 294 285 277 274 274 272 272 270 266 263 259 258 258 246 230 228 228 229 224 222 218 204 199 192 194 204 217 220 220
343 329 319 316 314 314 312 309 304 299 295 291 284 277 274 272 274 271 264 260 256 252 245 226 216 218 222 228 221 219 209 204 199 194 199 214 222 218
342 314 313 314 312 311 309 306 305 302 297 290 285 281 276 274 274 274 269 264 256 251 242 217 210 215 219 223 220 216 209 197 188 198 206 212 221 215
313 308 311 311 310 309 309 308 306 306 303 297 289 283 279 275 275 274 271 268 260 253 239 214 208 214 219 216 196 213 210 192 191 201 205 207 219 222
315 309 306 307 308 307 307 306 306 306 307 306 299 293 286 281 277 277 274 270 265 250 232 220 216 203 174 131 130 174 247 206 190 193 190 191 188 186
306 307 308 307 307 307 308 309 311 312 313 315 312 304 296 289 284 282 278 276 269 252 235 207 158 152 160 176 165 152 139 134 171 169 169 159 166 190
307 307 307 308 308 309 311 311 312 314 316 317 318 314 309 302 295 289 284 279 270 252 175 140 131 124 129 125 127 128 130 118 94 82 50 53 77 71